Total_Precipitation_Accumulation
0.01 0.01 0.02 0.02 0.03 0.03 0.04 0.05 0.07 0.08 0.09 0.09 0.09 0.10 0.12 0.14 0.17 0.21 0.25 0.30 0.33 0.34 0.35 0.37 0.38 0.38 0.38 0.36 0.36 0.36 0.38 0.51 0.53 0.18 0.10 0.17 0.28 0.33 0.33 0.30 0.29 0.28 0.26
0.03 0.03 0.04 0.04 0.06 0.09 0.11 0.12 0.13 0.14 0.14 0.14 0.13 0.13 0.13 0.14 0.17 0.19 0.23 0.27 0.33 0.37 0.39 0.43 0.44 0.44 0.46 0.46 0.47 0.45 0.43 0.46 0.55 0.36 0.15 0.15 0.24 0.32 0.36 0.35 0.29 0.26 0.24
0.04 0.05 0.06 0.09 0.12 0.16 0.19 0.20 0.20 0.20 0.20 0.19 0.19 0.20 0.20 0.24 0.28 0.28 0.27 0.29 0.32 0.35 0.37 0.42 0.47 0.53 0.57 0.55 0.55 0.54 0.49 0.43 0.45 0.44 0.26 0.18 0.22 0.28 0.34 0.37 0.35 0.32 0.28
0.09 0.11 0.14 0.18 0.22 0.25 0.26 0.25 0.23 0.23 0.24 0.24 0.24 0.26 0.30 0.38 0.52 0.55 0.45 0.41 0.38 0.37 0.37 0.41 0.47 0.56 0.63 0.69 0.73 0.65 0.57 0.57 0.54 0.51 0.38 0.28 0.26 0.29 0.40 0.44 0.43 0.41 0.40
0.20 0.23 0.23 0.22 0.22 0.22 0.22 0.22 0.23 0.25 0.27 0.26 0.25 0.26 0.32 0.47 0.79 0.83 0.66 0.53 0.46 0.44 0.42 0.44 0.48 0.59 0.76 0.92 1.02 0.95 0.87 0.85 0.76 0.70 0.58 0.45 0.38 0.42 0.48 0.49 0.52 0.47 0.48
0.27 0.27 0.25 0.22 0.21 0.21 0.22 0.22 0.23 0.23 0.21 0.18 0.17 0.22 0.31 0.48 0.87 0.93 0.76 0.54 0.47 0.48 0.48 0.43 0.41 0.47 0.56 0.69 0.89 0.94 0.98 1.02 1.00 0.94 0.85 0.73 0.55 0.49 0.53 0.65 0.73 0.71 0.62
0.28 0.28 0.26 0.24 0.23 0.21 0.20 0.18 0.18 0.16 0.13 0.11 0.09 0.12 0.19 0.36 0.73 0.83 0.69 0.47 0.38 0.39 0.39 0.35 0.33 0.33 0.36 0.36 0.45 0.51 0.59 0.73 0.90 1.02 1.09 0.91 0.71 0.62 0.71 0.85 0.89 0.84 0.67
0.25 0.23 0.19 0.16 0.15 0.14 0.14 0.13 0.11 0.10 0.08 0.07 0.05 0.06 0.08 0.16 0.50 0.74 0.59 0.32 0.28 0.30 0.30 0.33 0.34 0.32 0.31 0.36 0.42 0.43 0.41 0.45 0.63 0.83 0.97 0.88 0.80 0.78 0.86 1.02 1.11 1.15 0.96
0.15 0.12 0.09 0.07 0.07 0.08 0.08 0.07 0.06 0.05 0.04 0.03 0.03 0.04 0.04 0.08 0.30 0.66 0.63 0.28 0.26 0.25 0.28 0.37 0.42 0.38 0.36 0.45 0.57 0.54 0.40 0.34 0.40 0.64 0.86 0.88 0.88 1.02 1.17 1.42 1.59 1.64 1.50
0.07 0.05 0.03 0.02 0.03 0.04 0.04 0.03 0.03 0.02 0.03 0.03 0.03 0.03 0.03 0.05 0.18 0.55 0.75 0.38 0.30 0.25 0.27 0.37 0.56 0.53 0.48 0.50 0.56 0.54 0.47 0.34 0.31 0.35 0.43 0.54 0.61 0.68 0.92 1.25 1.43 1.50 1.51
0.02 0.01 0.01 0.00 0.01 0.01 0.02 0.02 0.02 0.03 0.03 0.03 0.03 0.03 0.03 0.04 0.08 0.34 0.76 0.64 0.44 0.35 0.34 0.41 0.54 0.51 0.48 0.47 0.50 0.49 0.48 0.44 0.41 0.39 0.36 0.35 0.41 0.52 0.66 0.92 1.14 1.26 1.35
0.00 0.00 0.00 0.00 0.01 0.01 0.02 0.02 0.03 0.03 0.04 0.04 0.05 0.04 0.03 0.03 0.07 0.22 0.51 0.66 0.57 0.40 0.38 0.34 0.40 0.41 0.43 0.44 0.41 0.42 0.43 0.45 0.45 0.38 0.30 0.26 0.27 0.36 0.48 0.66 0.90 1.04 1.12
0.00 0.00 0.01 0.01 0.01 0.02 0.02 0.03 0.04 0.04 0.07 0.09 0.09 0.08 0.05 0.04 0.07 0.20 0.30 0.34 0.41 0.36 0.39 0.51 0.44 0.36 0.32 0.27 0.25 0.29 0.31 0.33 0.37 0.33 0.24 0.17 0.17 0.24 0.33 0.47 0.63 0.82 0.94
0.01 0.01 0.01 0.01 0.02 0.02 0.03 0.04 0.05 0.08 0.19 0.26 0.22 0.18 0.12 0.09 0.17 0.34 0.35 0.25 0.27 0.30 0.30 0.36 0.34 0.25 0.18 0.14 0.12 0.14 0.18 0.24 0.29 0.29 0.21 0.14 0.14 0.18 0.26 0.37 0.52 0.68 0.86
0.01 0.02 0.02 0.02 0.03 0.03 0.03 0.04 0.07 0.09 0.26 0.45 0.40 0.38 0.35 0.33 0.43 0.64 0.60 0.48 0.47 0.46 0.43 0.39 0.30 0.23 0.20 0.16 0.11 0.09 0.10 0.15 0.21 0.22 0.21 0.20 0.18 0.20 0.23 0.29 0.46 0.62 0.79
0.03 0.03 0.04 0.04 0.04 0.04 0.05 0.05 0.05 0.07 0.14 0.18 0.23 0.33 0.32 0.42 0.53 0.50 0.46 0.43 0.44 0.44 0.45 0.40 0.26 0.19 0.17 0.15 0.13 0.11 0.09 0.11 0.13 0.17 0.20 0.21 0.22 0.23 0.24 0.27 0.41 0.57 0.67
0.04 0.05 0.06 0.06 0.06 0.07 0.09 0.11 0.10 0.07 0.06 0.06 0.09 0.17 0.26 0.35 0.39 0.36 0.37 0.31 0.28 0.28 0.32 0.26 0.18 0.15 0.13 0.13 0.12 0.12 0.10 0.08 0.11 0.16 0.19 0.20 0.23 0.27 0.28 0.31 0.38 0.49 0.60
0.04 0.06 0.08 0.08 0.09 0.11 0.13 0.14 0.15 0.15 0.11 0.06 0.04 0.08 0.15 0.22 0.26 0.27 0.28 0.26 0.20 0.16 0.18 0.18 0.15 0.13 0.13 0.13 0.13 0.12 0.12 0.11 0.13 0.15 0.17 0.19 0.23 0.31 0.33 0.32 0.37 0.49 0.59
0.04 0.06 0.09 0.10 0.11 0.12 0.13 0.14 0.13 0.13 0.13 0.09 0.07 0.07 0.10 0.13 0.14 0.14 0.17 0.21 0.20 0.15 0.13 0.14 0.13 0.15 0.16 0.15 0.13 0.13 0.13 0.13 0.13 0.15 0.16 0.17 0.21 0.30 0.33 0.30 0.35 0.45 0.63
0.05 0.08 0.12 0.12 0.12 0.12 0.13 0.15 0.16 0.17 0.16 0.14 0.13 0.13 0.18 0.23 0.20 0.14 0.14 0.17 0.18 0.17 0.15 0.16 0.14 0.15 0.17 0.16 0.15 0.15 0.15 0.14 0.13 0.15 0.17 0.18 0.21 0.29 0.33 0.32 0.38 0.47 0.58
0.07 0.08 0.11 0.12 0.12 0.13 0.16 0.19 0.20 0.22 0.22 0.19 0.14 0.14 0.35 0.44 0.29 0.18 0.15 0.17 0.20 0.22 0.21 0.20 0.17 0.15 0.16 0.17 0.17 0.17 0.16 0.14 0.13 0.15 0.18 0.19 0.23 0.29 0.30 0.35 0.40 0.46 0.55
0.10 0.12 0.13 0.15 0.15 0.15 0.20 0.21 0.22 0.24 0.23 0.21 0.15 0.12 0.18 0.21 0.18 0.17 0.17 0.16 0.18 0.21 0.23 0.26 0.22 0.18 0.19 0.21 0.22 0.22 0.18 0.15 0.13 0.16 0.20 0.21 0.24 0.29 0.32 0.37 0.42 0.49 0.57
0.15 0.17 0.16 0.14 0.14 0.17 0.18 0.17 0.20 0.23 0.22 0.20 0.19 0.17 0.15 0.16 0.17 0.18 0.19 0.18 0.20 0.23 0.24 0.26 0.27 0.21 0.18 0.20 0.22 0.26 0.27 0.22 0.19 0.23 0.29 0.30 0.29 0.32 0.35 0.40 0.44 0.50 0.57
0.19 0.19 0.19 0.17 0.17 0.18 0.20 0.20 0.20 0.21 0.22 0.23 0.21 0.19 0.18 0.18 0.17 0.17 0.18 0.19 0.22 0.23 0.25 0.28 0.28 0.24 0.22 0.22 0.22 0.23 0.25 0.29 0.38 0.43 0.42 0.44 0.41 0.37 0.39 0.44 0.45 0.49 0.55
0.18 0.19 0.20 0.21 0.22 0.23 0.24 0.23 0.21 0.23 0.24 0.25 0.24 0.21 0.19 0.18 0.18 0.17 0.17 0.20 0.23 0.24 0.22 0.25 0.27 0.26 0.23 0.22 0.22 0.22 0.25 0.34 0.46 0.62 0.74 0.74 0.62 0.49 0.48 0.50 0.50 0.51 0.57
0.16 0.17 0.19 0.21 0.24 0.27 0.30 0.30 0.27 0.27 0.29 0.27 0.25 0.24 0.23 0.23 0.21 0.20 0.22 0.27 0.31 0.29 0.25 0.24 0.24 0.24 0.24 0.23 0.21 0.22 0.30 0.46 0.60 0.76 0.97 1.06 0.88 0.65 0.57 0.58 0.56 0.57 0.62